Regional Weather Roundup
Issued by NWS

Home | Current Version | Previous Version | Graphics & Text | Print | Product List | Glossary On
Versions: 1 2 3 4 5 6 7 8 9 10 11 12 13 14 15 16 17 18 19 20 21 22 23 24 25 26 27 28 29 30 31 32 33 34 35 36 37 38 39 40 41 42 43 44 45 46 47 48 49 50
000
ASUS45 KABQ 012301
RWRNM
WEATHER ROUNDUP FOR NEW MEXICO
NATIONAL WEATHER SERVICE ALBUQUERQUE NM
400 PM MST SUN MAR 01 2015

NOTE: "FAIR" MEANS FEW OR NO CLOUDS BELOW 12,000 FEET AGL WITH NO
       SIGNIFICANT WEATHER OR OBSTRUCTIONS TO VISION.

      THIS PRODUCT IS RELEASED AS TWO VERSIONS.  ONE VERSION NEAR
      THE TOP OF THE HOUR CONTAINING PRELIMINARY DATA FROM ALBUQUERQUE
      AND OTHER STATIONS.  A FINAL VERSION WITH ADDITIONAL DATA IS
      ISSUED ABOUT 10 MINUTES AFTER THE HOUR.

NMZ501-503-504-510>518-020000-
NORTHWEST PLATEAU/NORTHCENTRAL MOUNTAINS

CITY           SKY/WX    TMP DP  RH WIND       PRES   REMARKS
FARMINGTON     CLOUDY    45  38  76 E6        30.04S
LOS ALAMOS     MOSUNNY   47  34  59 S9G16     30.11R
SANTA FE       CLOUDY    53  34  48 SW5       30.07S
TAOS           CLOUDY    43  34  70 CALM      30.11S
ANGEL FIRE     FAIR      42  31  64 S5        30.13R

$$
NMZ402-403-502-505>509-020000-
WESTCENTRAL MOUNTAINS/SOUTHWEST MOUNTAINS

CITY           SKY/WX    TMP DP  RH WIND       PRES   REMARKS
GALLUP         PTSUNNY   50  39  66 W16       30.04R
GRANTS         CLOUDY    56  30  36 S9        30.04S
SILVER CITY    MOSUNNY   66  21  18 SW20      30.08S

$$
NMZ407-409-411-412-020000-
SOUTHERN DESERTS

CITY           SKY/WX    TMP DP  RH WIND       PRES   REMARKS
LORDSBURG      FAIR      70  27  19 S15G28    30.00F
DEMING         MOSUNNY   71  17  12 S10G22    30.02S
LAS CRUCES     MOSUNNY   71  20  14 S12       30.05F
HOLLOMAN AFB   PTSUNNY   71  27  19 N20       30.01S
ALAMOGORDO     PTSUNNY   70  28  21 S15G23    30.04S
T OR C         MOSUNNY   68  27  21 SW20G29   30.02R

$$
NMZ519>523-020000-
CENTRAL VALLEYS/CENTRAL HIGHLANDS

CITY           SKY/WX    TMP DP  RH WIND       PRES   REMARKS
ALBUQUERQUE    MOSUNNY   62  34  35 S9        30.02F
DOUBLE EAGLE   MOSUNNY   57  37  47 SE8       30.04F
MORIARTY ARPT  FAIR      62  29  28 SW21      30.07S
CLINES CORNERS MOSUNNY   57  31  37 SW16      30.08S
BELEN          FAIR      67  28  22 S18G25    30.00F
SOCORRO          N/A     70  25  18 S18G28    30.00S

$$
NMZ524>526-539-540-020000-
SOUTHCENTRAL MOUNTAINS

CITY           SKY/WX    TMP DP  RH WIND       PRES   REMARKS
RUIDOSO        NOT AVBL

$$
NMZ527>531-020000-
NORTHEAST HIGHLANDS/NORTHEAST PLAINS

CITY           SKY/WX    TMP DP  RH WIND       PRES   REMARKS
LAS VEGAS      MOSUNNY   34  30  85 SE16      30.09R WCI  24
RATON          FOG       31  30  96 SW13      30.12R VSB 1   WCI  21
CLAYTON        CLOUDY    30  22  72 NE13      30.21R WCI  20

$$
NMZ532>537-020000-
EASTCENTRAL PLAINS

CITY           SKY/WX    TMP DP  RH WIND       PRES   REMARKS
TUCUMCARI      CLOUDY    34  30  85 E13       30.20R WCI  25
CANNON AFB     CLOUDY    33  31  91 E9        30.19R WCI  26
CLOVIS AIRPORT CLOUDY    32  30  93 E7        30.20R WCI  26

$$
NMZ028-029-538-020000-
SOUTHEAST PLAINS

CITY           SKY/WX    TMP DP  RH WIND       PRES   REMARKS
ROSWELL        CLOUDY    39  34  82 NW5       30.15S
ARTESIA        PTSUNNY   46  37  71 SE7       30.15R
CARLSBAD       PTSUNNY   47  35  63 SE12      30.13F
HOBBS          CLOUDY    39  39 100 NE10      30.18R WCI  32


$$



USA.gov is the U.S. government's official web portal to all federal, state and local government web resources and services.